Location: Bishausen
(51.6334°N, 9.9631°E)
Time: 08:59:10
(UTC+00:00)

deb r/b (AGENA D) - Visible Passes

Search period start: 07 October 2024 00:00
Search period end: 17 October 2024 00:00
Orbit: 816 x 1064 km, 70.1° (Epoch: 06 October)

Date Brightness Start Highest point End Pass type
(mag) Time Alt. Az. Time Alt. Az. Time Alt. Az.
07 Oct ? 03:16:18 10° SSE 03:21:10 30° ESE 03:26:19 10° NE visible
08 Oct ? 03:30:21 10° S 03:35:45 46° ESE 03:41:30 10° NE visible
09 Oct ? 02:02:54 10° ESE 02:05:22 13° E 02:07:53 10° ENE visible
09 Oct ? 03:44:45 10° SSW 03:50:26 68° ESE 03:56:31 10° NE visible
10 Oct ? 02:15:39 10° SE 02:19:43 21° E 02:24:01 10° NE visible
10 Oct ? 03:59:37 11° SSW 04:05:14 83° WNW 04:11:27 10° NNE visible
11 Oct ? 02:31:01 19° SSE 02:34:10 31° ESE 02:39:26 10° NE visible
11 Oct ? 04:14:58 13° SW 04:20:09 59° NW 04:26:18 10° NNE visible
12 Oct ? 02:46:15 30° SSE 02:48:44 47° ESE 02:54:34 10° NE visible
12 Oct ? 04:30:11 13° WSW 04:35:10 43° NW 04:41:07 10° NNE visible
13 Oct ? 01:17:25 13° ESE 01:18:19 14° E 01:21:06 10° ENE visible
13 Oct ? 03:01:22 42° S 03:03:24 70° ESE 03:09:34 10° NE visible
13 Oct ? 04:45:18 11° W 04:50:19 32° NW 04:55:55 10° NNE visible
14 Oct ? 01:32:28 21° ESE 01:32:40 21° E 01:37:06 10° NE visible
14 Oct ? 03:16:23 47° SW 03:18:12 82° WNW 03:24:28 10° NNE visible
14 Oct ? 05:00:39 10° W 05:05:34 25° NNW 05:10:44 10° NNE visible
15 Oct ? 01:47:25 32° E 01:47:25 32° E 01:52:28 10° NE visible
15 Oct ? 03:31:21 42° WSW 03:33:06 58° NW 03:39:19 10° NNE visible
16 Oct ? 02:02:19 47° E 02:02:19 47° E 02:07:35 10° NE visible
16 Oct ? 03:46:14 33° W 03:48:08 42° NW 03:54:07 10° NNE visible
